(226691) = 2003 GM24 = 2004 JA22

Discovered at Kitt Peak on 2004-05-09 by Spacewatch.

Orbit

Orbit type: Jupiter Trojan

Note: WebGL enabled browser required.

epoch2024-03-31.0
epoch JD2460400.5
perihelion date2022-01-16.62074
perihelion JD2459596.12074
argument of perihelion (°)354.79883
ascending node (°)41.25135
inclination (°)16.64713
eccentricity0.1196347
perihelion distance (AU)4.6192131
Tisserand w.r.t. Jupiter2.9
ΔV w.r.t. Earth (km/sec)13.0
semimajor axis (AU)5.2469280
mean anomaly (°)65.96401
mean daily motion (°/day)0.08200610
aphelion distance (AU)5.875
period (years)12.02
P-vector [x]0.80599658
P-vector [y]0.55288346
P-vector [z]0.21139868
Q-vector [x]-0.56097170
Q-vector [y]0.59950952
Q-vector [z]0.57087572
absolute magnitude12.88
phase slope0.15
uncertainty0
referenceMPEC 2024-E179
observations used535
oppositions16
arc length (days)8011
first opposition used2002
last opposition used2024
residual rms (arc-secs)0.62
perturbers coarse indicatorM-v
perturbers precise indicator003Ek
first observation date used2002-03-10.0
last observation date used2024-02-15.0
computer nameMPCLINUX
JD of orbit computation2456789.289471
perihelion JD uncertainty (days)3.7469E-04
argument of perihelion uncertainty (°)4.1031E-05
ascending node uncertainty (°)2.0516E-05
inclination uncertainty (°)7.9612E-06
eccentricity uncertainty 1.3394E-07
perihelion distance uncertainty (AU)5.4637E-07
Minimum Orbit Intersection Distances (in AU)
for orbit epoch: 2460400.5, reference: E2024-GB3
Mercury4.29362
Venus3.89544
Earth3.62713
Mars3.16021
Jupiter0.3498
Saturn3.90493
Uranus12.7726
Neptune24.7871

Observations

545 total observations over interval: 2002 03 10.98391 – 2024 02 15.266721
These data are available for download (format description).

Date (UT) J2000 RA J2000 Dec Magn Location Ref
2002 03 10.98391 12 02 45.84 +16 14 13.7 19.3 R 239 – Trebur MPS 112921
2002 03 10.99387 12 02 45.54 +16 14 15.1 19.4 R 239 – Trebur MPS 112921
2002 03 11.00486 12 02 45.21 +16 14 16.8 19.2 R 239 – Trebur MPS 112921
2002 03 11.46962 12 02 30.99 +16 15 26.9 20.9   644 – Palomar Mountain/NEAT MPS 112921
2002 03 11.48063 12 02 30.65 +16 15 28.9 20.8   644 – Palomar Mountain/NEAT MPS 112921
2002 03 11.49151 12 02 30.33 +16 15 30.6 20.9   644 – Palomar Mountain/NEAT MPS 112921
2003 04 07.39863 13 24 35.63 -00 34 49.3 21.2 V 691 – Steward Observatory, Kitt Peak-Spacewatch MPS 76493
2003 04 07.42626 13 24 34.80 -00 34 47.2 21.6 V 691 – Steward Observatory, Kitt Peak-Spacewatch MPS 76493
2003 04 07.45491 13 24 33.95 -00 34 43.9 21.2 V 691 – Steward Observatory, Kitt Peak-Spacewatch MPS 76493
2003 04 08.28016 13 24 09.34 -00 33 17.5 21.1 V 291 – LPL/Spacewatch II MPS 76493
2003 04 08.29034 13 24 09.03 -00 33 16.3 21.5 V 291 – LPL/Spacewatch II MPS 76493
2003 04 08.30049 13 24 08.74 -00 33 15.8 21.0 V 291 – LPL/Spacewatch II MPS 76493
2003 05 02.25709 13 12 35.31 -00 01 48.3 21.3 V 691 – Steward Observatory, Kitt Peak-Spacewatch MPS 112921
2003 05 02.29000 13 12 34.42 -00 01 46.8 21.0 V 691 – Steward Observatory, Kitt Peak-Spacewatch MPS 112921
2003 05 02.31718 13 12 33.67 -00 01 45.9 21.2 V 691 – Steward Observatory, Kitt Peak-Spacewatch MPS 112921
2004 04 22.33043 14 50 28.24 -17 01 21.2 21.0 V 691 – Steward Observatory, Kitt Peak-Spacewatch MPS 110714
2004 04 22.35767 14 50 27.41 -17 01 19.8 21.1 V 691 – Steward Observatory, Kitt Peak-Spacewatch MPS 110714
2004 04 22.38980 14 50 26.38 -17 01 17.9 21.4 V 691 – Steward Observatory, Kitt Peak-Spacewatch MPS 110714
2004 05 09.27130 14 41 36.36 -16 45 44.1 20.9 V 691 – Steward Observatory, Kitt Peak-Spacewatch MPS 107458
2004 05 09.29912 14 41 35.46 -16 45 42.7 21.0 V 691 – Steward Observatory, Kitt Peak-Spacewatch MPS 107458
2004 05 09.32770 14 41 34.52 -16 45 41.0 21.2 V 691 – Steward Observatory, Kitt Peak-Spacewatch MPS 107458
2004 05 16.26659 14 38 00.11 -16 38 48.3 21.3 V 691 – Steward Observatory, Kitt Peak-Spacewatch MPS 107458
2004 05 16.29465 14 37 59.22 -16 38 46.5 21.5 V 691 – Steward Observatory, Kitt Peak-Spacewatch MPS 107458
2004 05 16.32228 14 37 58.32 -16 38 44.8 21.8 V 691 – Steward Observatory, Kitt Peak-Spacewatch MPS 107458
2007 08 07.60637 21 13 55.81 -37 41 59.2 19.7 V E12 – Siding Spring Survey MPS 212615
2007 08 07.61703 21 13 55.34 -37 42 01.2 19.8 V E12 – Siding Spring Survey MPS 212615
2007 08 07.62758 21 13 54.98 -37 42 03.2 19.6 V E12 – Siding Spring Survey MPS 212615
2009 09 29.39168 02 08 00.85 +07 17 08.3 19.8 V 691 – Steward Observatory, Kitt Peak-Spacewatch MPS 296894
2009 09 29.40968 02 08 00.34 +07 17 07.2 19.9 V 691 – Steward Observatory, Kitt Peak-Spacewatch MPS 296894
2009 09 29.42728 02 07 59.81 +07 17 06.3 19.8 V 691 – Steward Observatory, Kitt Peak-Spacewatch MPS 296894
2009 10 11.95272 02 01 25.22 +07 05 25.3 19.2 V J75 – OAM Observatory, La Sagra MPS 298291
2009 10 11.95921 02 01 24.97 +07 05 25.2 19.1 V J75 – OAM Observatory, La Sagra MPS 298291
2009 10 11.96603 02 01 24.75 +07 05 24.5 18.9 V J75 – OAM Observatory, La Sagra MPS 298291
2009 10 11.97252 02 01 24.48 +07 05 24.5 19.3 V J75 – OAM Observatory, La Sagra MPS 298291
2009 10 11.97935 02 01 24.30 +07 05 24.0 18.6 V J75 – OAM Observatory, La Sagra MPS 298291
2009 10 11.98587 02 01 23.95 +07 05 24.3 18.7 V J75 – OAM Observatory, La Sagra MPS 298291
2009 10 17.36139 01 58 16.86 +07 00 03.2 19.5 V G96 – Mt. Lemmon Survey MPS 299346
2009 10 17.36704 01 58 16.68 +07 00 02.9 19.2 V G96 – Mt. Lemmon Survey MPS 299346
2009 10 17.37279 01 58 16.46 +07 00 02.4 19.5 V G96 – Mt. Lemmon Survey MPS 299346
2009 10 17.37844 01 58 16.24 +07 00 02.2 19.1 V G96 – Mt. Lemmon Survey MPS 299346
2009 10 17.38285 01 58 16.06 +07 00 02.2 19.1 V 703 – Catalina Sky Survey MPS 299346
2009 10 17.39064 01 58 15.78 +07 00 01.3 19.5 V 703 – Catalina Sky Survey MPS 299346
2009 10 17.39844 01 58 15.45 +07 00 00.5 18.7 V 703 – Catalina Sky Survey MPS 299346
2009 10 17.40630 01 58 15.27 +07 00 00.2 19.2 V 703 – Catalina Sky Survey MPS 299346
2009 10 24.34718 01 54 07.05 +06 53 29.5 19.0 V G96 – Mt. Lemmon Survey MPS 300637
2009 10 24.35477 01 54 06.80 +06 53 29.1 19.4 V G96 – Mt. Lemmon Survey MPS 300637
2009 10 24.36221 01 54 06.51 +06 53 28.7 19.4 V G96 – Mt. Lemmon Survey MPS 300637
2009 10 24.36977 01 54 06.22 +06 53 28.1 19.3 V G96 – Mt. Lemmon Survey MPS 300637
2009 10 26.13494 01 53 03.13 +06 51 57.3 19.7 V 691 – Steward Observatory, Kitt Peak-Spacewatch MPS 300637
2009 10 26.15213 01 53 02.46 +06 51 56.8 19.8 V 691 – Steward Observatory, Kitt Peak-Spacewatch MPS 300637
2009 10 26.16934 01 53 01.86 +06 51 55.6 19.5 V 691 – Steward Observatory, Kitt Peak-Spacewatch MPS 300637
2009 11 08.09170 01 45 34.89 +06 43 54.0 19.8 V 691 – Steward Observatory, Kitt Peak-Spacewatch MPS 302150
2009 11 08.10847 01 45 34.35 +06 43 53.3 19.8 V 691 – Steward Observatory, Kitt Peak-Spacewatch MPS 302150
2009 11 08.12184 01 45 33.91 +06 43 53.0 20.2 V 691 – Steward Observatory, Kitt Peak-Spacewatch MPS 302150
2009 11 11.10171 01 43 58.35 +06 43 01.4   691 – Steward Observatory, Kitt Peak-Spacewatch MPS 302150
2009 11 11.11509 01 43 57.95 +06 43 01.2   691 – Steward Observatory, Kitt Peak-Spacewatch MPS 302150
2009 11 11.12849 01 43 57.52 +06 43 00.9   691 – Steward Observatory, Kitt Peak-Spacewatch MPS 302150
2009 11 18.20932 01 40 28.43 +06 42 53.2 19.5   704 – Lincoln Laboratory ETS, New Mexico MPS 303262
2009 11 18.22176 01 40 27.97 +06 42 52.6 19.7   704 – Lincoln Laboratory ETS, New Mexico MPS 303262
2009 11 18.24646 01 40 27.28 +06 42 53.5 19.0   704 – Lincoln Laboratory ETS, New Mexico MPS 303262
2010 01 12.348240 01 35 06.44 +08 37 28.3   C51 – WISE MPS 330676
2010 01 12.414456 01 35 07.56 +08 37 44.0   C51 – WISE MPS 330676
2010 01 12.480544 01 35 08.69 +08 37 59.3   C51 – WISE MPS 330676
2010 01 12.546760 01 35 09.78 +08 38 14.8   C51 – WISE MPS 330676
2010 01 12.612976 01 35 10.96 +08 38 30.3   C51 – WISE MPS 330676
2010 01 12.679065 01 35 12.02 +08 38 46.4   C51 – WISE MPS 330676
2010 01 12.811369 01 35 14.32 +08 39 18.0   C51 – WISE MPS 330676
2010 01 12.811497 01 35 14.31 +08 39 17.3   C51 – WISE MPS 330676
2010 01 12.943802 01 35 16.60 +08 39 47.9   C51 – WISE MPS 330676
2010 01 16.09850 01 36 15.01 +08 52 29.3 20.3 V G96 – Mt. Lemmon Survey MPS 311124
2010 01 16.10471 01 36 15.15 +08 52 30.6 20.0 V G96 – Mt. Lemmon Survey MPS 311124
2010 01 16.11108 01 36 15.26 +08 52 32.3 20.2 V G96 – Mt. Lemmon Survey MPS 311124
2010 01 16.11743 01 36 15.37 +08 52 33.9 20.1 V G96 – Mt. Lemmon Survey MPS 311124
2010 09 24.529220 04 50 28.298 +29 21 31.83 19.71 z F51 – Pan-STARRS 1, Haleakala MPS 365294
2010 09 24.540399 04 50 28.389 +29 21 34.25 19.72 z F51 – Pan-STARRS 1, Haleakala MPS 365294
2010 10 29.42140 04 45 13.57 +31 07 26.2 19.0 V G96 – Mt. Lemmon Survey MPS 355125
2010 10 29.42572 04 45 13.46 +31 07 26.9 18.8 V G96 – Mt. Lemmon Survey MPS 355125
2010 10 29.43002 04 45 13.32 +31 07 27.5 19.0 V G96 – Mt. Lemmon Survey MPS 355125
2010 10 29.43476 04 45 13.21 +31 07 28.3 18.9 V G96 – Mt. Lemmon Survey MPS 355125
2010 11 05.09983 04 42 02.58 +31 22 49.6 19.6 V J75 – OAM Observatory, La Sagra MPS 357280
2010 11 05.11182 04 42 02.17 +31 22 51.3 19.5 V J75 – OAM Observatory, La Sagra MPS 357280
2010 11 05.12380 04 42 01.80 +31 22 52.9 19.5 V J75 – OAM Observatory, La Sagra MPS 357280
2010 11 13.44159 04 37 17.68 +31 38 37.3 18.9 V G96 – Mt. Lemmon Survey MPS 358645
2010 11 13.44914 04 37 17.43 +31 38 38.4 18.8 V G96 – Mt. Lemmon Survey MPS 358645
2010 11 13.45677 04 37 17.14 +31 38 38.9 18.8 V G96 – Mt. Lemmon Survey MPS 358645
2010 11 13.46434 04 37 16.86 +31 38 39.5 19.1 V G96 – Mt. Lemmon Survey MPS 358645
2010 11 15.33954 04 36 07.14 +31 41 39.5 19.6   704 – Lincoln Laboratory ETS, New Mexico MPS 358645
2010 11 15.35293 04 36 06.67 +31 41 39.6 19.6   704 – Lincoln Laboratory ETS, New Mexico MPS 358645
2010 11 15.37928 04 36 05.62 +31 41 42.2 19.6   704 – Lincoln Laboratory ETS, New Mexico MPS 358645
2010 11 17.586212 04 34 41.100 +31 44 54.23 19.13 i F51 – Pan-STARRS 1, Haleakala MPS 365294
